Location: Shenandoah County Park
(38.9356°N, 78.4524°W)
Time: 13:23:05
(UTC-05:00)

Transit 2A Rocket - All Passes

Search period start: 30 January 2023 00:00
Search period end: 09 February 2023 00:00
Orbit: 585 x 915 km, 66.7° (Epoch: 29 January)

Date Brightness Start Highest point End Pass type
(mag) Time Alt. Az. Time Alt. Az. Time Alt. Az.
30 Jan - 01:33:05 10° WSW 01:37:27 31° NW 01:42:13 10° N night (unlit)
30 Jan - 08:34:20 10° N 08:39:23 27° NE 08:44:29 10° ESE daylight
30 Jan - 10:16:23 10° NW 10:22:19 56° WSW 10:28:13 10° S daylight
30 Jan - 23:09:08 10° SE 23:12:14 17° ESE 23:15:31 10° ENE night (unlit)
31 Jan - 00:49:27 10° SW 00:54:11 53° WNW 00:59:27 10° NNE night (unlit)
31 Jan - 07:51:55 10° N 07:55:54 18° NE 07:59:56 10° E daylight
31 Jan - 09:33:13 10° NNW 09:39:19 89° ENE 09:45:25 10° SSE daylight
31 Jan - 11:18:17 10° WNW 11:21:07 14° WSW 11:23:56 10° SW daylight
01 Feb - 00:06:18 10° SSW 00:11:05 86° ESE 00:16:27 10° NNE night (unlit)
01 Feb - 01:51:33 10° WNW 01:54:30 15° NW 01:57:37 10° N night (unlit)
01 Feb - 07:10:10 10° NNE 07:12:17 12° NE 07:14:25 10° ENE daylight
01 Feb - 08:50:15 10° NNW 08:56:11 55° ENE 09:02:10 10° SE daylight
01 Feb - 10:33:41 10° NW 10:38:25 24° WSW 10:43:08 10° SSW daylight
01 Feb - 23:23:35 10° S 23:28:09 46° ESE 23:33:12 10° NE night (unlit)
02 Feb - 01:06:59 10° W 01:11:00 24° NW 01:15:21 10° N night (unlit)
02 Feb - 08:07:27 10° NNW 08:12:57 35° NE 08:18:27 10° ESE daylight
02 Feb - 09:49:58 10° NW 09:55:36 41° WSW 10:01:13 10° S daylight
02 Feb - 22:41:28 10° SSE 22:45:22 25° ESE 22:49:35 10° NE night (unlit)
03 Feb - 00:23:03 10° WSW 00:27:38 39° NW 00:32:42 10° NNE night (unlit)
03 Feb - 07:24:52 10° N 07:29:32 23° NE 07:34:16 10° E daylight
03 Feb - 09:06:38 10° NNW 09:12:40 69° WSW 09:18:41 10° SSE daylight
03 Feb - 22:00:25 10° SE 22:02:43 13° ESE 22:05:05 10° ENE night (unlit)
03 Feb - 23:39:36 10° SW 23:44:25 68° WNW 23:49:49 10° NNE night (unlit)
04 Feb - 01:26:16 10° WNW 01:28:12 12° NW 01:30:11 10° NNW night (unlit)
04 Feb - 06:42:37 10° N 06:46:00 15° NE 06:49:26 10° ENE visible
04 Feb - 08:23:32 10° NNW 08:29:37 74° ENE 08:35:42 10° SE daylight
04 Feb - 10:07:47 10° WNW 10:11:35 17° WSW 10:15:23 10° SW daylight
04 Feb - 22:56:37 10° SSW 23:01:24 68° ESE 23:06:44 10° NNE night (unlit)
05 Feb - 00:41:04 10° W 00:44:36 18° NW 00:48:21 10° N night (unlit)
05 Feb - 07:40:38 10° NNW 07:46:27 45° NE 07:52:15 10° SE daylight
05 Feb - 09:23:40 10° NW 09:28:51 30° WSW 09:34:00 10° SSW daylight
05 Feb - 22:14:08 10° S 22:18:32 36° ESE 22:23:20 10° NE night (unlit)
05 Feb - 23:56:47 10° WSW 00:01:08 29° NW 00:05:53 10° N night (unlit)
06 Feb - 06:57:55 10° N 07:03:08 29° NE 07:08:22 10° ESE daylight
06 Feb - 08:40:07 10° NW 08:46:00 51° WSW 08:51:48 10° S daylight
06 Feb - 21:32:20 10° SSE 21:35:48 20° ESE 21:39:29 10° ENE night (unlit)
06 Feb - 23:13:04 10° SW 23:17:50 48° NW 23:23:07 10° NNE night (unlit)
07 Feb - 06:15:25 10° N 06:19:40 19° NE 06:23:56 10° E visible
07 Feb - 07:56:54 10° NNW 08:03:00 84° WSW 08:09:04 10° SSE daylight
07 Feb - 09:42:33 10° W 09:44:43 12° W 09:46:52 10° WSW daylight
07 Feb - 22:29:49 10° SSW 22:34:42 86° WNW 22:40:09 10° NNE night (unlit)
08 Feb - 00:15:25 10° WNW 00:18:14 14° NW 00:21:10 10° N night (unlit)
08 Feb - 05:33:26 10° NNE 05:36:04 13° NE 05:38:42 10° ENE visible
08 Feb - 07:13:52 10° NNW 07:19:54 60° ENE 07:25:53 10° SE daylight
08 Feb - 08:57:32 10° WNW 09:02:02 22° WSW 09:06:29 10° SSW daylight
08 Feb - 21:47:01 10° S 21:51:44 52° ESE 21:56:57 10° NE night (unlit)
08 Feb - 23:30:43 10° W 23:34:41 22° NW 23:38:57 10° N night (unlit)
